Date String (YYYY-MM-DD hh:mm:ss) UTC,Instrument flags,Ambient pressure (hPa),Sample flow (lpm),Bypass flow (lpm),Sample temperature (°C),Ambient temperature (°C),ASC tube jacket temperature (°C),LED temperature (°C),Box temperature (°C),Sample RH (%),Span deviation,Mass concentration (μg/m³),Mass concentration (μg/m³),Mass concentration (μg/m³)
DateTimeUTC,F1_M11,P_M11,Q1_M11,Q2_M11,T1_M11,T2_M11,T3_M11,T4_M11,T5_M11,U1_M11,ZSPAN_M11,X2_M11,X0_M11,X1_M11
2023-04-11 01:00:00,,0835.9,5.00,0.00,30.6,29.1,00.0,38.9,32.0,08.9,0000.0,0004.12,0022.04,0001.86
2023-04-11 01:01:00,,0835.9,4.98,0.00,30.6,29.1,00.0,38.9,32.1,08.8,0000.0,0004.11,0022.31,0001.85
2023-04-11 01:02:00,,0835.9,5.02,0.00,30.6,29.2,00.0,38.9,32.1,08.8,0000.0,0004.14,0023.84,0001.85
2023-04-11 01:03:00,,0835.9,5.00,0.00,30.6,29.2,00.0,39.0,32.1,08.9,0000.0,0004.17,0022.33,0001.84
2023-04-11 01:04:00,,0835.9,4.98,0.00,30.6,29.2,00.0,39.0,32.1,08.9,0000.0,0004.08,0021.42,0001.84
2023-04-11 01:05:00,,0835.9,4.99,0.00,30.6,29.3,00.0,39.0,32.1,08.9,0000.0,0004.09,0021.19,0001.84
2023-04-11 01:06:00,,0835.9,5.01,0.00,30.7,29.3,00.0,39.0,32.2,08.9,0000.0,0004.01,0020.18,0001.82
2023-04-11 01:07:00,,0835.9,5.00,0.00,30.7,29.3,00.0,39.0,32.2,08.9,0000.0,0003.96,0020.91,0001.82
2023-04-11 01:08:00,,0835.9,5.02,0.00,30.7,29.3,00.0,39.0,32.2,08.9,0000.0,0003.96,0019.79,0001.82
2023-04-11 01:09:00,,0835.9,5.00,0.00,30.7,29.3,00.0,39.0,32.2,08.9,0000.0,0003.92,0019.93,0001.82
2023-04-11 01:10:00,,0835.9,5.00,0.00,30.7,29.4,00.0,39.0,32.2,08.9,0000.0,0003.92,0020.21,0001.83
2023-04-11 01:11:00,,0835.8,4.99,0.00,30.7,29.4,00.0,39.0,32.2,08.9,0000.0,0003.99,0019.74,0001.82
2023-04-11 01:12:00,,0835.8,5.00,0.00,30.7,29.4,00.0,39.1,32.2,08.8,0000.0,0004.00,0019.20,0001.80
2023-04-11 01:13:00,,0835.8,5.00,0.00,30.7,29.4,00.0,39.1,32.2,08.8,0000.0,0003.95,0018.24,0001.80
2023-04-11 01:14:00,,0835.9,5.00,0.00,30.8,29.4,00.0,39.1,32.2,08.8,0000.0,0003.93,0018.43,0001.81
2023-04-11 01:15:00,,0835.8,4.99,0.00,30.8,29.4,00.0,39.1,32.3,08.7,0000.0,0004.00,0017.95,0001.80
2023-04-11 01:16:00,,0835.8,5.00,0.00,30.8,29.5,00.0,39.1,32.3,08.7,0000.0,0004.03,0018.15,0001.80
2023-04-11 01:17:00,,0835.8,5.00,0.00,30.8,29.5,00.0,39.1,32.3,08.7,0000.0,0004.02,0017.72,0001.80
2023-04-11 01:18:00,,0835.8,4.99,0.00,30.8,29.5,00.0,39.1,32.3,08.7,0000.0,0004.02,0017.56,0001.78
2023-04-11 01:19:00,,0835.8,5.00,0.00,30.8,29.5,00.0,39.1,32.3,08.7,0000.0,0004.06,0017.86,0001.78
2023-04-11 01:20:00,,0835.9,5.00,0.00,30.8,29.5,00.0,39.2,32.3,08.7,0000.0,0004.10,0018.08,0001.81
2023-04-11 01:21:00,,0835.9,4.99,0.00,30.8,29.5,00.0,39.2,32.3,08.7,0000.0,0004.11,0017.02,0001.82
2023-04-11 01:22:00,,0835.9,5.00,0.00,30.8,29.5,00.0,39.2,32.3,08.8,0000.0,0004.07,0017.62,0001.81
2023-04-11 01:23:00,,0835.9,5.01,0.00,30.9,29.5,00.0,39.2,32.4,08.8,0000.0,0004.05,0017.16,0001.80
2023-04-11 01:24:00,,0835.9,5.01,0.00,30.9,29.5,00.0,39.2,32.3,08.8,0000.0,0004.09,0016.99,0001.80
2023-04-11 01:25:00,,0835.9,5.00,0.00,30.9,29.5,00.0,39.2,32.3,08.8,0000.0,0004.08,0017.07,0001.79
2023-04-11 01:26:00,,0835.9,5.00,0.00,30.9,29.5,00.0,39.2,32.3,08.8,0000.0,0004.01,0017.47,0001.77
2023-04-11 01:27:00,,0835.9,4.99,0.00,30.9,29.3,00.0,39.2,32.3,08.8,0000.0,0003.96,0017.91,0001.76
2023-04-11 01:28:00,,0835.8,4.99,0.00,30.8,27.4,00.0,39.1,32.0,08.8,0000.0,0003.98,0017.66,0001.75
2023-04-11 01:29:00,,0835.9,5.00,0.00,30.7,25.6,00.0,39.0,31.7,08.8,0000.0,0004.01,0016.67,0001.76
2023-04-11 01:30:00,,0835.9,5.01,0.00,30.6,25.4,00.0,38.9,31.6,08.9,0000.0,0003.97,0015.94,0001.76
2023-04-11 01:31:00,,0835.9,5.01,0.00,30.4,25.7,00.0,38.9,31.5,08.9,0000.0,0003.92,0015.52,0001.74
2023-04-11 01:32:00,,0835.9,4.99,0.00,30.4,26.1,00.0,38.9,31.5,08.9,0000.0,0003.92,0015.63,0001.73
2023-04-11 01:33:00,,0835.9,5.00,0.00,30.3,26.6,00.0,38.8,31.5,09.0,0000.0,0003.94,0016.09,0001.73
2023-04-11 01:34:00,,0835.9,5.01,0.00,30.3,27.0,00.0,38.8,31.6,09.0,0000.0,0003.96,0016.90,0001.74
2023-04-11 01:35:00,,0835.9,4.99,0.00,30.3,27.3,00.0,38.8,31.6,09.0,0000.0,0003.91,0016.29,0001.73
2023-04-11 01:36:00,,0835.9,5.01,0.00,30.3,27.6,00.0,38.8,31.6,09.0,0000.0,0003.91,0015.66,0001.73
2023-04-11 01:37:00,,0835.9,5.01,0.00,30.3,27.9,00.0,38.8,31.7,09.0,0000.0,0003.92,0015.90,0001.73
2023-04-11 01:38:00,,0835.9,5.01,0.00,30.3,28.1,00.0,38.8,31.7,09.0,0000.0,0003.94,0015.51,0001.74
2023-04-11 01:39:00,,0835.9,4.99,0.00,30.3,28.2,00.0,38.7,31.7,09.0,0000.0,0003.91,0015.17,0001.74
2023-04-11 01:40:00,,0835.9,4.99,0.00,30.3,28.4,00.0,38.7,31.8,09.0,0000.0,0003.89,0015.33,0001.73
2023-04-11 01:41:00,,0835.9,4.99,0.00,30.3,28.5,00.0,38.7,31.7,09.0,0000.0,0003.88,0016.06,0001.71
2023-04-11 01:42:00,,0835.9,5.00,0.00,30.3,28.6,00.0,38.7,31.8,09.0,0000.0,0003.90,0016.22,0001.69
2023-04-11 01:43:00,,0835.9,5.01,0.00,30.3,28.7,00.0,38.7,31.8,09.0,0000.0,0003.91,0017.04,0001.67
2023-04-11 01:44:00,,0835.9,5.00,0.00,30.3,28.7,00.0,38.7,31.8,09.0,0000.0,0003.87,0016.60,0001.66
2023-04-11 01:45:00,,0835.9,5.00,0.00,30.4,28.8,00.0,38.7,31.9,09.0,0000.0,0003.80,0016.38,0001.66
2023-04-11 01:46:00,,0835.9,5.00,0.00,30.4,28.8,00.0,38.7,31.9,09.0,0000.0,0003.85,0016.34,0001.66
2023-04-11 01:47:00,,0835.9,5.00,0.00,30.4,28.9,00.0,38.7,31.9,09.0,0000.0,0003.86,0016.16,0001.65
2023-04-11 01:48:00,,0835.9,5.00,0.00,30.4,28.9,00.0,38.7,31.9,09.0,0000.0,0003.85,0015.32,0001.66
2023-04-11 01:49:00,,0835.9,5.00,0.00,30.4,29.0,00.0,38.8,31.9,08.9,0000.0,0003.80,0014.82,0001.66
2023-04-11 01:50:00,,0835.9,5.00,0.00,30.4,29.0,00.0,38.8,31.9,08.9,0000.0,0003.79,0015.10,0001.65
2023-04-11 01:51:00,,0835.9,5.00,0.00,30.4,29.0,00.0,38.8,31.9,08.9,0000.0,0003.78,0015.15,0001.66
2023-04-11 01:52:00,,0835.9,5.00,0.00,30.4,29.0,00.0,38.8,32.0,08.9,0000.0,0003.78,0014.61,0001.67
2023-04-11 01:53:00,,0836.0,5.00,0.00,30.5,29.1,00.0,38.8,32.0,08.9,0000.0,0003.74,0014.78,0001.67
2023-04-11 01:54:00,,0836.0,4.99,0.00,30.5,29.1,00.0,38.8,32.0,08.9,0000.0,0003.73,0015.14,0001.68
2023-04-11 01:55:00,,0836.0,5.00,0.00,30.5,29.1,00.0,38.8,32.0,08.9,0000.0,0003.72,0015.39,0001.69
2023-04-11 01:56:00,,0836.0,4.99,0.00,30.5,29.1,00.0,38.8,32.0,08.9,0000.0,0003.76,0014.60,0001.69
2023-04-11 01:57:00,,0836.0,5.00,0.00,30.5,29.1,00.0,38.8,32.0,08.8,0000.0,0003.77,0016.02,0001.69
2023-04-11 01:58:00,,0836.1,5.00,0.00,30.5,29.2,00.0,38.8,32.0,08.8,0000.0,0003.77,0016.49,0001.71
2023-04-11 01:59:00,,0836.1,5.01,0.00,30.5,29.2,00.0,38.8,32.0,08.8,0000.0,0003.74,0015.97,0001.71
